Showing default

RUBIN 4/SL-8, 27940

Orbit data source: Space-Track

RUBIN 4/SL-8, 27940 is a payload satellite owned by KVR (DE) in SSO that was launched on Sat, 27 Sep 2003 UTC launched from the Plesetsk Missile And Space Complex (PKMTR). Payload-class satellites include a variety of spacecraft equipped with specific instruments for various scientific and technological missions. These include communications satellites like Starlink; space stations such as the ISS; scientific satellites like the Hubble; Earth observation satellites from companies like Planet Labs, Umbra, and HawkEye 360; GPS; miniature CubeSats for education and research; and military/defense satellites.

Loading next visibility...
Identifier
27940, 2003-042B
Orbit
SSO
Country
Flag of DEDE / GER
Related business
Manufacturer
Polyot
Mission
Spacecraft
Bus & Motor
S3, Unknown motor
Mass
1,479 kg wet, 1,434 kg dry
Launch date (UTC)
2003-09-27 (22 years ago)
Launch vehicle
Unknown
Launch site
Plesetsk Missile And Space Complex (PKMTR)
Object type
Payload
Rocket body
Debris
Shape & HBR
Cyl, 2.1 m
Radar Cross Section
10.179 m², Large (>1 m²)

Expand to show TLE details & history
Last TLE update: 10 hours ago

TLE from 10 hours ago
0 RUBIN 4/SL-8
1 27940U 03042B   25308.45299772  .00000819  00000-0  14825-3 0  9995
2 27940  98.3721 115.6536 0012841 350.3031   9.7924 14.69087439181565
Epoch: 2025-11-04T10:52Z
TLE epoch observation values (Epoch: 2025-11-04T10:52:19.003Z)
Latitude
-0.00003°
Longitude
-91.36538°
Altitude
658.062 km
Speed
7.533 km/s
True Right ascension
07h 42m 36s
True Declination
0° 00' 00"
Sunlit
Object was in daylight at epoch
Visualization orbit readout
Latitude
Unknown
Longitude
Unknown
Altitude
Unknown
Speed
Unknown
Apparent Right ascension
Unknown
Apparent Declination
Unknown
Sunlit
N/A
Visualization observer readout
Local Sidereal Time
16:25:45
Azimuth
Unknown
Elevation
Unknown
Doppler factor
Unknown
Orbital elements
Apogee altitude
670.099 km
Perigee altitude
652.021 km
Semi-major axis
7,039.197 km
Eccentricity
0.00128
Inclination
98.3721°
RAAN
115.6536°
Arg. of periapsis
350.3031°
True anomaly
9.81747°
Mean anomaly
9.7924°
Eccentric anomaly
9.80493°
Mean motion
3.67501 °/min
Orbital period
97.96 mins
BSTAR
0.00014825
Loading maneuver chart data...
Computing Atmospheric mass density...
Loading historical data...
Loading historical data...
Loading historical data...
Loading historical data...
Loading historical data...
Loading historical data...
Loading historical data...
Other satellites on launch #42 in the year 2003 (2003-09-27 UTC)

Documentation

Showing up to 5 results
|